ATLAS D DEB, 2337

Orbit data source: Space-Track

ATLAS D DEB, 2337 is space debris in LEO originally from a launch on Thu, 14 Jul 1966 UTC launched from the Air Force Western Test Range (AFWTR). Debris objects in space refer to the collection of defunct objects orbiting the Earth. Examples of debris include non-operational satellites, rocket bodies, and fragments generated from explosions, collisions, or faulty payload assembly.

Loading next visibility...
ATLAS D DEB details
Identifier
2337, 1966-063E
Orbit
LEO
Last TLE update23 hours ago
Origin
Flag of USUSAF OAR (US)
ManufacturerUnknown
MissionSpacecraft
Bus & MotorUnknown
Mass9 kg wet, 9 kg dry
Launch date (UTC)
1966-07-14 (59 years ago)
Launch vehicleUnknown
Launch site
Air Force Western Test Range (AFWTR)
Object type
Payload
Rocket body
Debris
Shape & HBRTrunc Cone, 0.7 m
Radar Cross Section0.700 m², Medium (>0.1 m² and < 1m²)

Expand to show TLE details & history

TLE from 23 hours ago
0 ATLAS D DEB
1 02337U 66063E   25043.67901352  .00000423  00000-0  18941-3 0  9998
2 02337 144.2319 319.0960 0006049 249.6373 172.4892 13.72164466934809
Epoch: 2025-02-12T16:17Z
Definitive object data (Epoch: 2025-02-12T16:17:46.768Z)
Latitude31.23746°
Longitude-125.19988°
Altitude996.349 km
Speed7.356 km/s
True Right ascension17h 28m 50s
True Declination31° 05' 24"
Sunlit
Object was in daylight at TLE epoch
Visualization TLE readout
Latitude24.48864°
Longitude155.35311°
Altitude993.233 km
Speed7.358 km/s
Apparent Right ascension09h 41m 35s
Apparent Declination-7° 17' 50"
Sunlit
Object is in full shadow
Visualization observer readout
Local Sidereal Time17:56:34
Azimuth287.252° WNW
Elevation-30.272°
Doppler factor1
Orbital elements
Apogee altitude999.189 km
Perigee altitude990.269 km
Semi-major axis7,372.866 km
Eccentricity0.0006049
Inclination144.2319°
RAAN319.096°
Arg. of periapsis249.6373°
True anomaly172.49825°
Mean anomaly172.4892°
Eccentric anomaly172.49373°
Mean motion3.42838 °/min
BSTAR0.00018941
Orbital period105.01 mins
Loading maneuver chart data...
Loading historical data...
Loading historical data...
Loading historical data...
Loading historical data...
Loading historical data...
Loading historical data...
Loading historical data...

ATLAS D DEB Visibility forecast

Observer location: undefined°, undefined

Span
Click to sort rows by Start time (UTC) header in descending order
Start Az.
Max El. time (UTC)
Max El. Az.
Max El.
End time (UTC)
End Az.
7 mins2025-02-13 16:37:23.357Z165.782° S2025-02-13 16:41:23.357Z212.404° SW19.428°2025-02-13 16:44:23.357Z247.337° WSW
8 mins2025-02-14 10:26:23.357Z105.816° ESE2025-02-14 10:30:23.357Z166.594° S28.666°2025-02-14 10:34:23.357Z216.833° SW
9 mins2025-02-14 12:05:23.357Z99.379° ESE2025-02-14 12:09:23.357Z169.907° S39.625°2025-02-14 12:14:23.357Z246.613° WSW
10 mins2025-02-14 13:44:23.357Z109.309° ESE2025-02-14 13:48:23.357Z169.664° S40.631°2025-02-14 13:54:23.357Z264.084° W
|